{"data":{"norad_id":50573,"epoch":"2026-09-20T23:00:40.944672Z","epoch_age_seconds":72554,"freshness":"FRESH","line1":"1 50573U 21134B   26263.95880723  .00004419  00000+0  84886-4 0  9997","line2":"2 50573  88.9683 309.0589 0010299  64.6959 295.5367 15.47627596264649","mean_motion":15.47627596,"eccentricity":0.0010299,"inclination_deg":88.9683,"raan_deg":309.0589,"arg_perigee_deg":64.6959,"mean_anomaly_deg":295.5367,"bstar":8.4886e-5,"rev_number":26464,"period_min":93.04563990212,"perigee_km":416.66314770724,"apogee_km":430.67350631982,"semimajor_km":6801.8053270135,"source":"CELESTRAK","updated_at":"2026-09-21T09:00:08.211103Z"}}